STARLINK-33766, 63472

Orbit data source: Space-Track

STARLINK-33766, 63472 is a payload satellite owned by SpaceX/Seattle (US) in LEO that was launched on Sun, 06 Apr 2025 UTC via an FALCON 9 launch vehicle from the Air Force Eastern Test Range (AFETR). Payload-class satellites include a variety of spacecraft equipped with specific instruments for various scientific and technological missions. These include communications satellites like Starlink; space stations such as the ISS; scientific satellites like the Hubble; Earth observation satellites from companies like Planet Labs, Umbra, and HawkEye 360; GPS; miniature CubeSats for education and research; and military/defense satellites.

Loading next visibility...
Identifier
63472, 2025-070N
Orbit
LEO
Country
Flag of USUS
Related business
Manufacturer
SpaceX/Seattle
Mission
Operational Commercial Communications
Bus & Motor
STARLINK V2MO, Unknown motor
Mass
575 kg wet, ~530 kg dry
Launch date (UTC)
2025-04-06 (1 year ago)
Launch vehicle
FALCON 9
Launch site
Air Force Eastern Test Range (AFETR)
Object type
Payload
Rocket body
Debris
Shape & HBR
Box + 2 Pan, 17.7 m
Radar Cross Section
36.964 m², Large (>1 m²)

Expand to show TLE details & history
Last TLE update: 10 hours ago

TLE from 10 hours ago
0 STARLINK-33766
1 63472U 25070N   26169.71983617  .00010188  00000-0  37911-3 0  9994
2 63472  43.0045  49.5878 0001732 268.7084  91.3569 15.27592136 68423
Epoch: 2026-06-18T17:16Z
TLE epoch observation values (Epoch: 2026-06-18T17:16:33.845Z)
Latitude
-0.00002°
Longitude
-116.51236°
Altitude
482.817 km
Speed
7.626 km/s
True Right ascension
03h 18m 21s
True Declination
0° 00' 00"
Sunlit
Object was in daylight at epoch
Visualization orbit readout
Latitude
Unknown
Longitude
Unknown
Altitude
Unknown
Speed
Unknown
Apparent Right ascension
Unknown
Apparent Declination
Unknown
Sunlit
N/A
Visualization observer readout
Local Sidereal Time
14:02:33
Azimuth
Unknown
Elevation
Unknown
Doppler factor
Unknown
Orbital elements
Apogee altitude
486.146 km
Perigee altitude
483.768 km
Semi-major axis
6,863.094 km
Eccentricity
0.00017
Inclination
43.0045°
RAAN
49.5878°
Arg. of periapsis
268.7084°
True anomaly
91.37674°
Mean anomaly
91.3569°
Eccentric anomaly
91.36682°
Mean motion
3.81736 °/min
Orbital period
94.31 mins
BSTAR
0.00037911
Loading maneuver chart data...
Computing Atmospheric mass density...
Loading historical data...
Loading historical data...
Loading historical data...
Loading historical data...
Loading historical data...
Loading historical data...
Loading historical data...

Documentation

Showing up to 5 results
|